This demonstration page uses our WeatherBlox Daily Observations layout. Learn more.

38.80484, -77.04692

Hourly Observations for April 12, 2019

Temp ( °F °C ) Dew Point ( °F °C ) Humidity (%) Winds ( mph kmh ) Pressure ( in mb ) Visibility ( mi km ) Precip ( " mm )
12:52 am 00:52 Cloudy 50 10 43 6.1 77 77 ENE 7 11 30.2 1023 10 16.0934 0 0
12:59 am 00:59 Cloudy 50 10 43 6.1 77 77 ENE 9 15 30.2 1023 10 16.0934 0 0
1:52 am 01:52 Cloudy 50 10 43 6.1 77 77 E 6 9 30.19 1022 10 16.0934 0 0
2:47 am 02:47 Cloudy 48 9 43 6 82 82 ENE 7 11 30.18 1022 10 16.0934 0 0
2:52 am 02:52 Cloudy 49 9.4 43 6.1 80 80 ENE 7 11 30.17 1022 10 16.0934 0 0
3:08 am 03:08 Cloudy 50 10 43 6.1 77 77 ENE 7 11 30.18 1022 10 16.0934 0 0
3:32 am 03:32 Mostly Cloudy 50 10 44 6.7 80 80 NE 9 15 30.17 1022 10 16.0934 0 0
3:52 am 03:52 Mostly Cloudy 50 10 44 6.7 80 80 NE 8 13 30.17 1022 10 16.0934 0 0
4:52 am 04:52 Mostly Cloudy 49 9.4 43 6.1 80 80 NE 8 13 30.16 1021 10 16.0934 0 0
5:09 am 05:09 Mostly Cloudy 49 9.4 44 6.7 83 83 NE 7 11 30.16 1021 10 16.0934 0 0
5:52 am 05:52 Mostly Cloudy 49 9.4 44 6.7 83 83 ENE 8 13 30.16 1021 10 16.0934 0 0
6:52 am 06:52 Cloudy 50 10 44 6.7 80 80 NE 8 13 30.18 1022 10 16.0934 0 0
6:57 am 06:57 Cloudy 50 10 44 6.7 80 80 NNE 8 13 30.18 1022 10 16.0934 0 0
7:52 am 07:52 Cloudy 51 10.6 45 7.2 80 80 NE 8 13 30.19 1022 10 16.0934 0 0
8:52 am 08:52 Cloudy 53 11.7 46 7.8 77 77 NE 5 7 30.19 1022 10 16.0934 0 0
9:52 am 09:52 Cloudy 59 15 49 9.4 69 69 Calm 30.19 1022 10 16.0934 0 0
10:52 am 10:52 Cloudy 66 18.9 54 12.2 65 65 VRB 3 6 30.17 1022 10 16.0934 0 0
11:52 am 11:52 Cloudy 72 22.2 59 15 64 64 S 9 15 30.14 1021 10 16.0934 0 0
12:52 pm 12:52 Cloudy with Light Rain 71 21.7 58 14.4 63 63 S 13 20 30.11 1020 10 16.0934 0 0.0254
1:10 pm 13:10 Cloudy with Light Rain 70 21.1 59 15 68 68 S 14 22 30.11 1020 2.5 4.02335 0 0.0254
1:15 pm 13:15 Cloudy with Light Rain 69 20.6 59 15 70 70 S 10 17 30.11 1020 3 4.82802 0 0.0254
1:29 pm 13:29 Cloudy with Light Rain 69 20.6 60 15.6 73 73 S 10 17 30.12 1020 2.5 4.02335 0.01 0.254
1:40 pm 13:40 Cloudy with Light Rain 68 20 61 16.1 78 78 S 9 15 30.12 1020 4 6.43736 0.02 0.508
1:52 pm 13:52 Cloudy with Light Rain 67 19.4 60 15.6 79 79 S 14 22 30.13 1020 2 3.21868 0.02 0.508
2:00 pm 14:00 Cloudy with Light Rain 66 18.9 61 16.1 84 84 S 12 19 30.12 1020 3 4.82802 0 0.0254
2:17 pm 14:17 Cloudy with Light Rain 66 18.9 61 16.1 84 84 S 8 13 30.12 1020 7 11.26538 0 0.0254
2:52 pm 14:52 Cloudy 67 19.4 62 16.7 84 84 S 7 11 30.1 1019 10 16.0934 0 0.0254
3:34 pm 15:34 Cloudy with Light Rain 66 18.9 62 16.7 87 87 S 9 15 30.09 1019 10 16.0934 0.01 0.254
3:52 pm 15:52 Cloudy 67 19.4 62 16.7 84 84 S 8 13 30.08 1019 10 16.0934 0.01 0.254
4:52 pm 16:52 Cloudy with Light Rain 67 19.4 62 16.7 84 84 SSE 9 15 30.06 1018 7 11.26538 0 0.0254
5:21 pm 17:21 Cloudy 67 19.4 61 16.1 81 81 S 13 20 30.07 1018 10 16.0934 0 0.0254
5:52 pm 17:52 Cloudy 67 19.4 61 16.1 81 81 S 8 13 30.07 1018 10 16.0934 0 0.0254
6:52 pm 18:52 Cloudy 66 18.9 61 16.1 84 84 S 7 11 30.06 1018 10 16.0934 0 0.0254
7:52 pm 19:52 Cloudy 65 18.3 61 16.1 87 87 SW 3 6 30.07 1018 10 16.0934 0.02 0.508
8:52 pm 20:52 Cloudy with Light Rain 65 18.3 61 16.1 87 87 ENE 3 6 30.08 1019 10 16.0934 0 0.0254
9:52 pm 21:52 Cloudy with Light Rain 64 17.8 61 16.1 90 90 ENE 3 6 30.08 1019 8 12.87472 0 0.0254
10:52 pm 22:52 Cloudy 64 17.8 61 16.1 90 90 Calm 30.06 1018 10 16.0934 0 0.0254
11:52 pm 23:52 Cloudy 65 18.3 60 15.6 84 84 S 6 9 30.04 1017 10 16.0934 0 0

Powered by AerisWeather